Regional Weather Roundup
Issued by NWS

Home | Current Version | Previous Version | Text Only | Print | Product List | Glossary On
Versions: 1 2 3 4 5 6 7 8 9 10 11 12 13 14 15 16 17 18 19 20 21 22 23 24 25 26 27 28 29 30 31 32 33 34 35 36 37 38 39 40 41 42 43 44 45 46 47 48 49 50
000
ASUS43 KLMK 220002
RWRKY
KENTUCKY REGIONAL WEATHER ROUNDUP
NATIONAL WEATHER SERVICE LOUISVILLE KY
800 PM EDT MON AUG 21 2017

NOTE "FAIR" INDICATES FEW OR NO CLOUDS BELOW 12,000 FEET
WITH NO SIGNIFICANT WEATHER AND/OR OBSTRUCTIONS TO VISIBILITY.

KYZ001>023-026-027-061>063-070>075-220100-
WESTERN AND SOUTH CENTRAL KENTUCKY

CITY           SKY/WX    TMP DP  RH WIND       PRES   REMARKS
PADUCAH        CLEAR     87  75  67 S3        30.05R HX  96
HENDERSON      LGT RAIN  84  76  76 N6        30.06R HX  93
OWENSBORO      CLEAR     86  69  56 SE7       30.07S HX  90
HOPKINSVILLE   CLEAR     88  73  60 S5        30.09R HX  95
BOWLING GREEN  CLOUDY    87  70  56 SE7       30.10R HX  92
GLASGOW        CLEAR     83  69  62 CALM      30.12R
$$

KYZ024-025-028>034-038-045-046-053-220100-
NORTH CENTRAL KENTUCKY

CITY           SKY/WX    TMP DP  RH WIND       PRES   REMARKS
LOUISVILLE/SDF CLOUDY    89  68  49 S8        30.07F HX  93
LOUISVILLE/LOU CLOUDY    86  71  60 S6        30.09S HX  91
FORT KNOX      CLOUDY    84  70  61 S5        30.09S
$$

KYZ035>037-039>044-047>052-055>060-089>105-220100-
NORTHEAST KENTUCKY

CITY           SKY/WX    TMP DP  RH WIND       PRES   REMARKS
LEXINGTON      MOCLDY    83  69  62 S6        30.13S
COVINGTON      CLOUDY    83  71  67 S3        30.10S
FRANKFORT      CLOUDY    83  69  62 S5        30.10S
$$

KYZ054-064>069-076>088-106>120-220100-
SOUTHEAST KENTUCKY

CITY           SKY/WX    TMP DP  RH WIND       PRES   REMARKS
JACKSON        CLEAR     81  68  64 CALM      30.17S
LONDON         CLEAR     84  68  58 CALM      30.16R
SOMERSET       NOT AVBL
MIDDLESBORO    CLEAR     80  70  70 CALM      30.17R
MONTICELLO     CLEAR     77  74  90 VRB6      30.16R
$$




USA.gov is the U.S. government's official web portal to all federal, state and local government web resources and services.